Temp
-13 -13 -12 -11 -11 -11 -12 -11 -11 -12 -11 -11 -11 -12 -12 -12 -11 -11 -11 -11 -11 -11 -10 -10 -10 -10 -10 -10 -10 -10 -10 -10 -11 -11 -11 -11 -11 -11 -11 -11 -11 -11 -11 -11
-13 -13 -13 -12 -12 -12 -11 -11 -11 -11 -11 -11 -11 -12 -12 -11 -11 -11 -11 -11 -12 -11 -11 -11 -11 -11 -11 -11 -11 -11 -11 -11 -11 -11 -11 -11 -11 -11 -11 -11 -11 -11 -12 -12
-13 -13 -13 -12 -12 -12 -12 -11 -11 -11 -12 -11 -12 -12 -11 -11 -11 -12 -11 -11 -11 -11 -11 -11 -11 -11 -11 -11 -11 -11 -11 -11 -11 -11 -11 -11 -11 -11 -11 -11 -11 -11 -12 -12
-14 -13 -13 -13 -12 -12 -12 -11 -12 -12 -12 -11 -11 -11 -11 -11 -11 -11 -11 -11 -11 -11 -11 -11 -11 -11 -12 -11 -11 -11 -11 -12 -12 -12 -11 -11 -11 -12 -11 -12 -12 -12 -12 -12
-14 -14 -13 -13 -13 -13 -12 -12 -12 -12 -12 -12 -12 -12 -10 -10 -10 -10 -11 -11 -12 -12 -12 -11 -11 -11 -11 -12 -12 -12 -12 -12 -12 -12 -12 -12 -12 -12 -12 -12 -12 -12 -12 -12
-15 -14 -14 -14 -13 -13 -12 -13 -13 -13 -13 -12 -11 -11 -10 -10 -10 -11 -11 -11 -11 -12 -12 -12 -12 -12 -12 -12 -12 -12 -12 -12 -12 -12 -12 -12 -12 -12 -12 -12 -13 -13 -12 -12
-15 -15 -14 -14 -14 -13 -13 -13 -12 -13 -13 -11 -11 -11 -8 -9 -10 -11 -11 -11 -11 -12 -12 -12 -12 -12 -12 -12 -12 -12 -12 -12 -12 -12 -12 -12 -12 -12 -12 -12 -13 -12 -12 -12
-15 -15 -14 -14 -14 -13 -12 -12 -12 -12 -11 -11 -11 -10 -8 -10 -10 -10 -10 -11 -11 -11 -11 -12 -12 -12 -12 -12 -12 -12 -12 -12 -12 -12 -12 -12 -12 -12 -12 -13 -13 -13 -12 -12
-15 -15 -14 -14 -13 -13 -13 -12 -13 -12 -12 -11 -10 -10 -9 -10 -10 -10 -11 -11 -12 -12 -12 -12 -12 -12 -12 -12 -12 -12 -12 -12 -12 -12 -12 -12 -12 -12 -13 -13 -13 -13 -13 -13
-15 -15 -14 -14 -14 -14 -13 -13 -13 -13 -12 -11 -10 -11 -10 -10 -10 -10 -11 -12 -12 -12 -12 -12 -12 -12 -12 -12 -12 -12 -13 -12 -12 -12 -12 -12 -12 -13 -13 -13 -13 -13 -13 -13
-16 -16 -15 -14 -14 -14 -14 -12 -12 -13 -13 -12 -11 -10 -11 -11 -11 -12 -12 -13 -13 -12 -12 -12 -12 -12 -12 -13 -13 -13 -12 -12 -13 -13 -13 -13 -13 -13 -13 -13 -13 -13 -14 -14
-16 -16 -15 -15 -14 -14 -14 -13 -13 -13 -13 -13 -12 -11 -12 -12 -11 -12 -12 -13 -13 -13 -13 -13 -13 -13 -13 -13 -13 -13 -13 -13 -13 -13 -13 -13 -13 -13 -13 -13 -13 -14 -15 -15
-16 -16 -15 -15 -15 -15 -14 -13 -13 -13 -14 -13 -13 -12 -12 -12 -12 -12 -13 -13 -13 -14 -14 -14 -13 -13 -13 -13 -13 -13 -13 -13 -13 -13 -13 -13 -13 -13 -13 -13 -13 -14 -15 -16
-17 -16 -16 -16 -15 -15 -15 -14 -14 -14 -13 -13 -12 -14 -13 -13 -13 -13 -13 -13 -13 -14 -14 -14 -14 -14 -13 -13 -13 -13 -13 -13 -13 -14 -14 -14 -14 -14 -14 -13 -14 -14 -15 -16
-17 -17 -16 -16 -16 -15 -15 -15 -15 -14 -14 -14 -14 -14 -14 -14 -14 -14 -14 -14 -14 -14 -14 -14 -14 -13 -13 -13 -13 -13 -13 -13 -13 -14 -14 -14 -14 -14 -14 -14 -15 -15 -16 -17
-18 -17 -17 -16 -16 -16 -15 -15 -15 -15 -15 -14 -13 -14 -14 -14 -15 -15 -14 -14 -14 -13 -13 -14 -13 -13 -13 -13 -13 -13 -13 -14 -14 -14 -15 -15 -14 -14 -14 -15 -15 -16 -17 -18
-18 -18 -17 -17 -17 -16 -16 -16 -15 -15 -15 -15 -14 -14 -15 -15 -15 -14 -15 -14 -14 -13 -13 -14 -13 -13 -13 -13 -13 -14 -14 -14 -15 -15 -15 -14 -14 -15 -15 -15 -16 -17 -18 -18
-19 -18 -18 -17 -17 -17 -16 -16 -15 -16 -16 -15 -14 -14 -14 -14 -15 -15 -14 -14 -14 -14 -14 -14 -13 -13 -14 -14 -14 -14 -15 -15 -15 -14 -14 -15 -15 -16 -16 -17 -17 -18 -18 -18
-19 -19 -18 -18 -18 -17 -17 -16 -16 -15 -15 -15 -15 -14 -14 -14 -14 -14 -14 -14 -14 -14 -14 -14 -14 -14 -13 -14 -14 -15 -15 -15 -15 -15 -14 -15 -16 -16 -17 -17 -18 -18 -18 -18
-19 -19 -19 -19 -18 -18 -18 -17 -17 -16 -16 -15 -15 -14 -14 -14 -14 -15 -15 -14 -14 -14 -14 -13 -13 -13 -13 -14 -14 -15 -15 -15 -16 -15 -15 -16 -17 -17 -17 -18 -18 -18 -19 -19
-20 -20 -20 -20 -19 -19 -18 -18 -17 -17 -17 -17 -16 -15 -15 -15 -14 -15 -14 -14 -14 -14 -13 -13 -13 -13 -14 -14 -14 -14 -15 -16 -16 -16 -16 -17 -17 -17 -18 -18 -18 -18 -19 -19
-22 -21 -20 -20 -20 -19 -19 -19 -18 -18 -18 -17 -17 -17 -16 -16 -15 -15 -16 -15 -15 -14 -14 -14 -14 -15 -15 -15 -15 -15 -16 -16 -17 -17 -18 -17 -17 -18 -18 -18 -19 -19 -19 -19
-22 -22 -21 -20 -20 -20 -20 -20 -19 -19 -19 -18 -18 -17 -17 -17 -17 -16 -16 -16 -16 -16 -16 -16 -16 -15 -15 -15 -16 -16 -16 -17 -17 -18 -17 -17 -18 -18 -18 -18 -18 -19 -19 -20
-22 -22 -21 -21 -21 -21 -21 -20 -20 -20 -19 -19 -19 -19 -18 -17 -17 -17 -18 -17 -17 -17 -16 -16 -16 -16 -16 -17 -17 -18 -18 -18 -18 -18 -18 -18 -18 -18 -18 -18 -19 -20 -20 -20
-22 -22 -22 -22 -22 -23 -22 -21 -20 -20 -20 -20 -19 -19 -19 -19 -19 -18 -18 -18 -18 -18 -17 -17 -17 -17 -17 -18 -18 -18 -18 -18 -18 -18 -19 -19 -19 -19 -19 -20 -20 -20 -20 -20
-24 -24 -24 -23 -24 -23 -23 -22 -22 -21 -21 -21 -20 -20 -20 -19 -19 -19 -19 -19 -18 -18 -18 -18 -18 -18 -18 -18 -18 -18 -18 -19 -19 -19 -20 -20 -19 -19 -20 -20 -20 -20 -21 -21
Height
5687 5698 5708 5722 5732 5740 5751 5761 5770 5776 5782 5787 5792 5801 5806 5811 5815 5818 5822 5826 5829 5832 5834 5837 5840 5842 5844 5845 5846 5847 5847 5847 5847 5847 5847 5845 5843 5841 5839 5837 5834 5832 5830 5827
5682 5694 5708 5716 5726 5736 5742 5752 5762 5765 5775 5781 5786 5794 5797 5804 5810 5813 5816 5819 5823 5825 5829 5832 5835 5837 5838 5840 5841 5842 5842 5842 5842 5841 5841 5840 5837 5834 5832 5830 5829 5827 5824 5821
5681 5695 5701 5707 5716 5726 5735 5744 5753 5761 5770 5775 5780 5784 5788 5796 5802 5804 5808 5813 5816 5821 5822 5826 5830 5831 5832 5834 5835 5836 5837 5837 5836 5836 5835 5834 5831 5827 5826 5824 5823 5821 5817 5814
5673 5684 5693 5702 5711 5723 5731 5739 5747 5755 5761 5766 5772 5777 5780 5787 5794 5796 5801 5806 5812 5815 5818 5821 5824 5826 5827 5827 5829 5830 5831 5831 5831 5830 5829 5827 5823 5820 5819 5818 5816 5814 5810 5806
5668 5679 5689 5696 5704 5714 5722 5732 5741 5747 5753 5757 5764 5767 5774 5780 5784 5789 5795 5802 5806 5810 5811 5813 5817 5819 5820 5821 5823 5824 5825 5825 5825 5823 5823 5820 5817 5815 5813 5811 5808 5806 5803 5799
5665 5676 5683 5691 5698 5706 5712 5723 5734 5739 5745 5748 5757 5758 5762 5770 5779 5785 5790 5795 5799 5801 5804 5806 5809 5812 5815 5816 5817 5817 5818 5818 5818 5817 5816 5814 5812 5808 5807 5804 5801 5798 5794 5790
5659 5669 5678 5685 5689 5696 5704 5714 5722 5729 5735 5738 5747 5747 5756 5763 5770 5777 5782 5787 5791 5793 5796 5800 5803 5806 5807 5809 5809 5810 5811 5811 5810 5809 5808 5806 5804 5801 5799 5797 5794 5790 5786 5782
5656 5665 5671 5678 5683 5692 5698 5707 5714 5718 5724 5729 5732 5741 5745 5759 5761 5768 5774 5778 5782 5786 5790 5794 5795 5797 5800 5801 5802 5803 5803 5803 5803 5801 5800 5797 5796 5793 5791 5788 5785 5781 5777 5773
5654 5660 5667 5674 5679 5684 5689 5698 5707 5713 5719 5722 5726 5736 5740 5751 5754 5760 5768 5772 5776 5780 5782 5785 5787 5789 5791 5793 5793 5794 5796 5795 5794 5792 5791 5789 5787 5784 5782 5780 5776 5772 5767 5762
5651 5655 5660 5667 5672 5677 5684 5692 5700 5704 5708 5713 5717 5723 5730 5739 5747 5755 5762 5764 5767 5771 5774 5776 5778 5780 5783 5785 5786 5787 5787 5786 5784 5783 5782 5780 5778 5775 5773 5769 5765 5761 5757 5753
5645 5651 5656 5659 5663 5670 5677 5680 5687 5694 5700 5704 5710 5716 5722 5728 5740 5746 5749 5751 5756 5760 5764 5768 5771 5773 5774 5776 5777 5777 5777 5776 5775 5774 5773 5771 5768 5766 5763 5759 5756 5752 5747 5743
5640 5644 5650 5653 5659 5663 5669 5674 5681 5687 5693 5697 5703 5709 5711 5718 5726 5735 5738 5742 5746 5751 5755 5759 5761 5763 5764 5765 5765 5765 5765 5765 5765 5765 5763 5761 5759 5756 5753 5750 5746 5742 5737 5734
5634 5639 5643 5647 5652 5655 5660 5667 5672 5677 5681 5688 5695 5703 5704 5711 5716 5722 5726 5730 5735 5740 5745 5748 5750 5751 5752 5753 5754 5754 5754 5755 5755 5753 5751 5750 5749 5746 5744 5741 5736 5732 5728 5726
5628 5633 5637 5642 5648 5652 5654 5659 5663 5668 5675 5681 5686 5691 5694 5700 5705 5711 5716 5719 5723 5726 5731 5736 5738 5739 5741 5742 5742 5744 5744 5743 5741 5740 5742 5740 5737 5735 5734 5730 5725 5722 5719 5716
5622 5626 5630 5634 5640 5644 5648 5651 5655 5661 5669 5672 5680 5683 5690 5691 5694 5699 5703 5707 5713 5718 5721 5724 5726 5727 5729 5731 5733 5733 5731 5731 5731 5731 5730 5728 5727 5725 5722 5718 5715 5713 5711 5708
5615 5619 5624 5629 5633 5637 5642 5646 5651 5655 5658 5662 5665 5673 5675 5680 5683 5689 5694 5697 5701 5705 5707 5710 5713 5716 5718 5720 5721 5721 5721 5720 5721 5720 5719 5718 5716 5713 5710 5707 5706 5704 5702 5700
5609 5613 5618 5622 5626 5630 5636 5642 5644 5647 5650 5656 5659 5667 5666 5669 5676 5679 5682 5686 5689 5690 5694 5698 5702 5706 5708 5709 5710 5710 5710 5710 5710 5709 5709 5707 5704 5701 5699 5699 5698 5696 5694 5691
5603 5607 5609 5613 5617 5620 5627 5631 5635 5639 5642 5646 5650 5654 5656 5661 5663 5666 5669 5675 5678 5681 5686 5689 5691 5693 5696 5698 5699 5700 5700 5699 5698 5697 5696 5695 5692 5691 5690 5689 5688 5687 5686 5684
5596 5599 5602 5605 5608 5612 5616 5622 5625 5629 5634 5638 5643 5645 5648 5651 5654 5659 5662 5666 5670 5672 5675 5678 5681 5683 5685 5687 5688 5689 5688 5687 5685 5685 5685 5683 5682 5682 5681 5681 5680 5679 5677 5674
5591 5593 5595 5597 5599 5602 5607 5611 5615 5619 5624 5628 5633 5636 5638 5641 5646 5650 5650 5653 5656 5659 5662 5666 5669 5672 5674 5675 5676 5676 5676 5675 5674 5674 5674 5674 5673 5673 5674 5673 5672 5671 5669 5667
5584 5586 5588 5589 5591 5594 5597 5601 5606 5612 5619 5618 5622 5626 5628 5631 5636 5637 5640 5644 5647 5650 5653 5656 5659 5660 5662 5664 5665 5665 5663 5662 5662 5662 5663 5663 5664 5665 5664 5664 5664 5662 5659 5657
5576 5578 5580 5582 5584 5588 5590 5593 5598 5603 5603 5607 5611 5615 5618 5621 5624 5627 5630 5633 5636 5639 5642 5645 5647 5649 5651 5652 5653 5653 5653 5652 5651 5651 5652 5655 5656 5655 5656 5656 5655 5653 5650 5648
5568 5569 5571 5576 5578 5580 5581 5585 5587 5590 5594 5597 5602 5606 5609 5611 5614 5615 5619 5622 5626 5629 5632 5634 5636 5638 5639 5639 5640 5641 5641 5642 5641 5643 5645 5646 5646 5647 5648 5647 5645 5644 5642 5638
5557 5558 5562 5564 5566 5567 5570 5573 5577 5580 5583 5586 5590 5594 5598 5601 5604 5606 5609 5612 5615 5618 5621 5624 5625 5626 5627 5627 5629 5630 5631 5632 5634 5635 5636 5637 5637 5638 5637 5637 5636 5634 5632 5628
5550 5549 5551 5552 5555 5553 5557 5560 5564 5567 5571 5575 5579 5584 5587 5590 5593 5597 5599 5603 5606 5609 5611 5614 5616 5617 5618 5619 5620 5620 5622 5625 5626 5625 5626 5629 5628 5627 5628 5627 5626 5623 5621 5617
5540 5537 5533 5536 5532 5535 5542 5545 5550 5554 5557 5563 5567 5572 5575 5579 5583 5586 5590 5593 5596 5598 5602 5605 5607 5608 5609 5611 5612 5612 5614 5616 5616 5615 5617 5618 5618 5618 5617 5615 5614 5612 5609 5606
Wind_Speed
61 58 59 66 63 64 54 55 49 49 45 42 42 43 40 39 36 33 31 30 27 28 29 28 26 24 23 22 22 21 22 24 26 27 27 28 30 33 35 31 32 29 28 30
61 51 47 57 62 63 49 59 55 54 42 42 44 46 46 45 40 37 36 33 31 32 31 30 28 26 26 25 25 26 28 28 29 27 27 30 34 35 30 30 28 28 30 33
59 49 50 48 61 64 64 61 57 45 47 47 46 50 47 44 42 43 42 37 35 34 35 33 30 29 29 27 28 30 31 31 30 29 29 32 30 31 28 27 28 30 34 36
57 41 38 44 56 64 68 65 58 54 54 48 48 50 49 41 40 41 43 37 35 36 36 34 33 30 30 32 32 32 32 31 32 32 34 31 29 28 29 31 32 34 36 38
58 42 41 37 45 46 56 71 59 58 57 55 50 53 50 48 45 42 40 37 38 38 39 38 36 35 35 34 35 34 32 31 34 33 31 30 31 32 34 34 36 37 39 41
56 42 39 35 46 49 52 60 50 54 52 57 51 51 54 49 44 39 38 42 42 42 43 42 40 36 36 36 37 33 33 33 34 35 33 32 33 35 36 36 37 40 43 45
49 47 42 39 43 52 61 59 56 52 53 58 58 57 58 49 44 44 45 43 45 45 46 42 39 39 39 39 37 35 36 35 35 35 35 35 35 36 36 38 40 44 46 46
58 44 39 39 42 51 58 61 59 60 65 60 60 61 59 49 48 52 47 44 45 45 43 40 39 39 41 42 39 38 37 37 37 36 37 37 35 37 39 40 44 45 47 48
39 39 37 37 40 45 53 55 50 54 62 69 63 56 63 51 45 47 45 42 44 45 44 44 42 41 42 44 41 41 40 40 39 37 38 38 37 39 41 43 46 47 48 50
57 36 37 35 37 41 43 49 50 49 54 64 69 57 56 53 47 48 41 39 42 42 43 43 43 43 43 43 42 42 43 41 40 41 41 40 41 42 43 45 47 50 51 53
53 54 41 36 38 44 43 50 52 48 47 52 56 60 59 60 55 51 44 42 42 43 44 45 45 44 44 42 42 43 43 43 44 44 43 43 44 44 45 47 49 52 53 49
36 37 45 39 39 40 43 43 43 46 46 45 43 47 44 50 52 53 44 40 44 42 42 46 44 43 44 45 45 44 43 46 47 47 47 47 46 46 48 48 52 53 48 46
38 31 37 39 39 40 42 42 43 46 46 46 47 48 51 56 50 47 47 44 47 42 46 47 46 48 48 45 44 46 48 49 49 51 50 49 50 50 49 51 55 51 47 44
29 41 35 37 35 33 35 36 37 41 45 43 43 42 48 50 49 51 49 47 43 51 51 48 54 54 53 53 53 52 52 51 51 50 50 49 52 51 50 53 52 49 45 42
34 39 40 37 37 35 32 34 35 37 37 39 37 39 40 45 48 47 49 50 47 43 43 48 52 55 55 53 50 51 52 52 52 50 50 52 52 51 54 53 49 44 42 37
35 33 34 34 34 33 35 34 34 36 38 40 42 39 42 45 44 42 41 44 47 47 44 48 52 50 47 47 50 52 51 50 47 48 50 49 52 54 52 48 44 40 35 33
37 36 37 38 36 33 36 31 33 34 36 36 40 34 39 44 44 43 42 42 43 45 44 41 41 43 46 45 42 40 40 42 43 46 49 54 54 51 46 43 36 33 31 29
31 32 39 41 42 42 40 39 38 37 35 40 39 38 44 44 48 47 47 47 46 43 40 40 42 43 42 42 42 42 44 47 50 53 55 54 48 43 40 32 31 30 29 33
30 28 31 38 43 42 42 42 41 44 45 43 41 41 41 44 48 45 44 46 48 46 44 43 42 42 43 45 47 47 47 48 50 49 48 46 44 41 33 31 31 30 33 37
25 27 29 31 33 37 42 43 44 44 45 46 46 47 47 44 41 38 41 44 46 45 45 45 46 45 45 43 42 44 44 47 47 48 46 42 39 32 33 33 32 33 37 38
27 27 28 30 32 34 37 39 43 44 45 44 48 51 52 51 50 49 47 44 43 45 46 46 47 47 47 46 47 47 47 47 46 44 40 36 33 33 32 32 33 36 37 40
29 30 31 33 33 35 37 39 41 43 44 46 46 47 49 49 51 52 49 49 49 50 49 48 47 48 48 46 45 45 45 45 42 39 32 30 35 35 33 34 36 38 39 41
33 35 34 35 37 38 39 41 41 41 41 43 44 45 48 48 47 50 47 46 45 44 44 43 42 43 45 45 43 44 44 38 35 31 31 34 34 34 35 37 39 41 43 42
42 44 43 40 41 43 40 41 42 45 44 42 42 43 45 47 49 42 35 30 31 32 33 35 37 37 37 36 38 37 34 33 33 33 34 35 34 36 38 41 45 43 45 47
46 47 49 51 47 47 45 44 46 46 47 47 47 46 41 40 40 40 36 33 30 30 31 32 34 34 32 31 32 32 35 37 37 35 35 37 38 38 41 42 43 45 48 49
33 40 46 48 49 52 52 52 48 49 49 49 47 45 44 43 40 40 40 37 34 31 30 32 32 34 32 33 33 34 38 41 39 37 36 37 39 40 42 44 46 47 48 49
Wind_Direction
206 199 206 199 209 210 208 212 210 207 208 217 216 204 213 212 216 218 220 221 225 231 234 238 239 240 246 246 253 259 263 267 270 272 274 278 283 283 292 296 297 296 302 304
204 202 196 207 207 204 206 210 212 207 210 215 217 212 210 213 222 224 223 221 223 232 235 237 239 242 245 249 254 260 265 269 271 272 278 283 288 288 288 290 289 296 301 303
208 196 199 202 205 206 212 212 213 209 217 223 225 220 219 222 225 232 222 221 224 231 235 236 239 244 249 253 256 262 268 270 272 276 281 288 290 287 287 289 294 298 300 307
206 194 197 206 205 210 215 218 215 217 216 220 225 224 223 228 237 224 217 222 226 229 234 236 241 243 248 253 259 264 267 269 275 280 288 285 287 289 291 291 294 299 301 305
211 211 209 212 210 208 213 216 217 218 222 225 229 231 232 230 221 223 218 224 226 231 235 237 238 243 247 254 260 262 264 271 278 280 281 284 285 286 289 293 296 298 301 304
217 213 211 216 211 209 213 210 215 225 229 229 230 230 223 222 232 228 229 230 226 232 235 238 240 242 249 254 257 257 263 271 277 279 281 282 283 284 287 290 293 297 301 304
209 216 220 214 218 211 211 210 212 216 218 228 225 224 217 225 233 231 231 227 226 231 236 237 240 245 248 252 251 252 264 271 276 278 282 282 282 283 285 289 293 296 298 299
213 216 214 216 221 220 217 217 223 219 219 229 227 229 224 234 244 232 229 230 229 233 237 236 242 242 248 249 250 253 264 270 274 278 283 281 280 282 288 290 290 293 296 298
207 218 218 216 220 217 215 218 222 225 227 233 236 242 237 237 239 229 231 228 232 237 234 242 240 244 247 249 249 256 263 268 273 280 282 279 280 283 285 287 290 295 296 297
219 223 223 221 216 208 218 223 226 229 231 235 237 238 235 236 234 228 234 233 234 238 240 237 239 245 246 248 254 259 264 268 274 278 278 277 279 281 284 287 290 293 296 298
224 231 233 230 225 217 217 223 225 228 232 234 235 240 241 242 238 237 237 242 234 235 238 239 245 247 249 252 256 260 265 271 274 277 279 274 276 282 284 289 293 295 296 295
213 225 231 235 234 232 225 226 228 232 232 234 240 237 237 228 234 240 244 245 242 236 241 244 247 249 251 255 258 262 266 270 274 278 276 274 276 281 283 290 294 295 292 292
214 210 212 214 222 228 227 225 230 228 231 232 234 239 242 242 240 242 248 249 241 233 239 243 247 249 251 253 257 261 265 270 274 274 273 273 275 277 285 291 294 293 292 296
220 222 219 218 218 225 230 228 229 226 229 233 229 231 237 243 245 248 250 252 251 227 231 240 242 248 254 258 259 263 266 269 269 270 272 274 274 280 287 291 290 290 292 295
219 231 231 231 222 220 222 222 221 223 225 229 230 234 234 241 244 246 248 250 252 251 245 241 245 249 254 258 262 265 265 267 269 270 273 273 278 283 285 287 285 287 292 292
223 224 236 237 236 231 231 222 221 222 224 225 229 229 232 234 240 243 242 243 245 246 245 245 248 252 257 259 261 262 264 267 272 272 272 277 280 284 286 285 285 289 285 285
232 227 223 224 227 233 236 237 233 229 228 233 238 237 234 239 236 236 239 241 241 241 244 246 249 252 254 255 258 264 268 269 270 272 275 278 283 283 282 283 286 280 284 287
234 235 227 226 226 233 234 232 235 234 233 235 236 236 240 239 229 232 237 240 240 241 244 245 246 248 253 260 264 266 269 271 273 273 275 280 279 280 279 278 277 284 284 284
233 231 233 233 232 233 232 231 230 230 230 233 234 237 238 240 242 247 249 248 246 245 248 250 253 255 256 259 263 268 269 269 270 272 273 274 278 275 270 271 277 279 282 285
241 240 236 238 236 237 235 234 231 229 230 233 235 238 240 243 244 241 242 245 247 248 249 249 252 254 257 259 259 260 264 266 267 269 271 273 268 264 267 273 275 277 283 288
241 242 251 246 242 242 243 241 237 234 235 238 236 237 241 242 241 245 247 245 243 245 247 250 253 256 257 258 261 262 261 262 265 265 266 259 258 264 266 270 274 278 284 290
247 246 245 250 250 249 249 249 247 243 241 242 241 240 242 242 243 244 246 248 246 245 248 251 253 255 257 258 258 259 260 262 264 260 248 250 262 264 267 270 277 282 286 291
256 254 252 251 254 251 249 247 245 242 241 243 246 248 246 247 248 246 246 245 246 248 251 252 255 255 254 254 254 256 259 259 251 243 248 257 261 264 266 273 279 283 287 292
261 262 261 254 254 253 252 250 249 249 245 244 245 246 245 245 244 242 243 240 242 242 241 242 243 246 248 249 250 251 256 251 244 245 252 258 260 265 271 277 280 286 292 299
266 267 265 262 258 251 248 251 250 249 248 245 243 242 239 239 239 239 239 235 235 238 241 244 249 251 249 246 249 252 254 254 252 253 255 263 263 268 273 281 290 296 301 304
269 265 262 259 254 253 249 241 242 244 247 247 244 243 244 244 242 238 236 234 234 235 245 248 251 254 247 248 254 256 259 259 255 253 261 265 268 272 283 290 295 299 303 308